Temp
3 4 4 2 1 -1 -3 -3 -2 -2 -1 0 1 1 0 -0 0 -0 0 0 1 1 1 2 1 1 3 3 4 5 6 7 7 8 10 11 12 12
3 3 2 -0 -1 -2 -3 -3 -3 -3 -3 -2 -1 -1 -1 -1 -0 -1 -0 -0 0 0 -0 -0 -0 1 2 2 2 3 5 6 7 7 9 10 11 12
2 1 -0 -1 -3 -4 -4 -4 -4 -3 -4 -2 -3 -2 -2 -1 -1 -1 -1 -1 0 0 -0 -0 -0 -0 1 2 2 3 3 3 5 6 7 8 9 10
-1 -3 -3 -3 -4 -4 -4 -4 -4 -4 -4 -4 -3 -2 -3 -3 -3 -3 -2 -2 -1 -1 -1 1 0 -1 -1 -0 0 2 3 3 5 5 6 7 8 8
-3 -3 -3 -4 -4 -4 -5 -5 -5 -4 -5 -4 -4 -4 -4 -4 -4 -4 -3 -3 -2 -2 -2 1 1 -1 -2 -2 -1 -0 2 3 5 4 5 6 7 8
-1 -3 -4 -3 -3 -3 -4 -5 -5 -5 -5 -5 -5 -5 -4 -4 -5 -5 -3 -4 -3 -2 1 -1 -2 -2 -1 -1 -2 -0 3 3 3 4 5 6 7 7
-2 -3 -3 -1 -1 -1 -3 -2 -4 -5 -6 -6 -5 -5 -5 -5 -5 -5 -5 -5 -5 -2 -2 -2 -0 -1 -2 -2 -2 -1 1 3 4 3 4 5 6 7
-2 -2 -3 -4 -2 -1 -2 -2 -3 -6 -6 -6 -6 -6 -6 -6 -5 -6 -6 -5 -5 -3 -4 -3 -2 -1 -0 -0 -1 1 2 3 3 3 4 4 4 7
-3 -3 -3 -4 -4 -2 -2 -3 -6 -6 -6 -6 -6 -6 -6 -6 -6 -5 -5 -5 -5 -4 -4 -4 -2 -2 -1 0 1 2 2 3 3 3 3 3 4 4
-2 -3 -2 -2 -3 -2 -2 -4 -6 -6 -5 -3 -4 -6 -6 -6 -6 -5 -5 -5 -5 -5 -4 -4 -3 -2 -0 1 1 1 2 2 2 2 2 2 3 4
-1 -2 -2 -2 -2 -2 -2 -4 -4 -4 -3 -2 -3 -5 -6 -6 -6 -6 -5 -5 -5 -5 -4 -4 -4 -3 -1 1 0 0 1 1 1 2 2 2 2 3
-1 -1 -2 -2 -2 -2 -3 -7 -4 -3 -3 -3 -4 -4 -6 -6 -6 -6 -6 -5 -5 -5 -4 -5 -4 -4 -4 -0 0 1 1 1 1 1 1 2 1 2
-2 -2 -2 -2 -2 -2 -3 -5 -5 -4 -4 -5 -5 -6 -6 -6 -5 -6 -6 -5 -5 -5 -4 -5 -5 -5 -5 -4 -1 -0 -1 -0 -0 0 0 1 1 1
-2 -3 -2 -2 -2 -2 -3 -3 -4 -7 -5 -6 -7 -7 -8 -7 -7 -6 -6 -5 -5 -4 -5 -5 -5 -5 -5 -3 -4 -3 -1 -1 -1 -0 -0 0 1 1
-2 -2 -2 -2 -2 -2 -2 -3 -5 -6 -7 -8 -8 -8 -8 -7 -7 -6 -6 -5 -5 -5 -5 -5 -5 -4 -4 -4 -4 -4 -3 -1 -1 -1 -0 -0 0 1
-2 -2 -2 -2 -3 -5 -7 -7 -8 -8 -8 -8 -8 -8 -8 -7 -7 -7 -6 -5 -5 -4 -4 -5 -5 -5 -4 -4 -4 -5 -4 -4 -2 -2 -1 -0 0 1
-2 -2 -2 -3 -5 -6 -7 -8 -8 -8 -8 -8 -8 -8 -8 -8 -7 -7 -7 -6 -6 -5 -5 -4 -4 -5 -5 -4 -4 -5 -5 -4 -3 -3 -2 -1 -0 0
-3 -3 -4 -5 -7 -8 -8 -8 -8 -8 -9 -9 -9 -8 -9 -9 -8 -8 -7 -7 -6 -5 -5 -5 -5 -5 -4 -4 -5 -5 -6 -5 -3 -3 -3 -2 -0 -0
-3 -4 -5 -5 -7 -8 -8 -9 -8 -9 -9 -9 -9 -8 -9 -9 -8 -8 -8 -7 -7 -6 -5 -5 -5 -5 -5 -5 -5 -6 -6 -6 -4 -3 -3 -3 -3 -2
-4 -5 -5 -5 -6 -6 -7 -7 -7 -8 -8 -8 -9 -7 -8 -9 -9 -9 -8 -8 -7 -7 -6 -5 -5 -5 -5 -5 -5 -5 -6 -6 -6 -5 -3 -2 -2 -3
-4 -5 -5 -5 -6 -6 -6 -6 -7 -7 -7 -7 -8 -8 -8 -10 -9 -9 -9 -9 -8 -7 -7 -6 -5 -5 -5 -5 -5 -5 -5 -6 -6 -6 -4 -2 -2 -3
-5 -5 -6 -6 -6 -6 -6 -7 -7 -7 -7 -7 -7 -8 -8 -9 -10 -9 -9 -9 -8 -8 -7 -6 -5 -5 -5 -5 -5 -5 -5 -5 -6 -6 -6 -5 -4 -4
-5 -6 -6 -6 -6 -7 -7 -7 -8 -8 -7 -7 -7 -7 -8 -8 -8 -10 -10 -9 -9 -9 -8 -6 -6 -5 -5 -5 -5 -5 -5 -5 -5 -6 -7 -7 -7 -6
Height
1536 1533 1530 1528 1524 1520 1517 1513 1507 1490 1481 1481 1478 1476 1469 1460 1452 1444 1435 1427 1419 1412 1407 1403 1398 1393 1388 1384 1380 1377 1376 1375 1373 1370 1369 1371 1372 1374
1535 1532 1529 1526 1522 1518 1515 1512 1508 1500 1485 1481 1473 1466 1460 1453 1447 1439 1431 1420 1413 1406 1401 1395 1389 1383 1376 1370 1366 1365 1363 1361 1360 1357 1355 1354 1356 1358
1534 1531 1528 1524 1520 1517 1514 1509 1505 1499 1486 1470 1469 1461 1452 1445 1439 1432 1424 1416 1407 1400 1393 1385 1377 1369 1363 1356 1351 1349 1348 1347 1347 1345 1342 1340 1340 1342
1533 1530 1528 1523 1519 1516 1511 1506 1501 1495 1486 1470 1463 1454 1448 1439 1430 1422 1415 1409 1401 1391 1384 1374 1365 1358 1351 1345 1338 1334 1332 1332 1333 1333 1330 1328 1325 1325
1533 1530 1527 1521 1518 1513 1508 1503 1497 1490 1483 1473 1457 1451 1441 1434 1423 1415 1407 1398 1391 1383 1374 1364 1355 1348 1340 1334 1328 1322 1319 1317 1318 1318 1315 1314 1313 1311
1533 1530 1526 1521 1516 1510 1505 1499 1493 1486 1478 1468 1458 1447 1439 1427 1421 1411 1390 1388 1378 1371 1362 1354 1346 1338 1331 1324 1315 1309 1306 1305 1306 1307 1306 1302 1299 1297
1533 1529 1524 1519 1514 1509 1502 1495 1489 1481 1473 1464 1454 1443 1434 1423 1415 1406 1396 1378 1371 1364 1351 1348 1337 1327 1319 1311 1304 1299 1298 1297 1297 1296 1294 1290 1286 1283
1531 1527 1523 1519 1512 1506 1501 1495 1488 1480 1472 1463 1452 1442 1430 1423 1413 1404 1393 1380 1359 1358 1347 1336 1330 1317 1311 1305 1299 1294 1290 1288 1287 1287 1283 1279 1274 1267
1529 1525 1521 1516 1509 1502 1496 1490 1485 1479 1473 1463 1450 1441 1429 1421 1410 1398 1390 1380 1367 1351 1345 1331 1325 1313 1306 1299 1293 1287 1283 1282 1280 1277 1274 1269 1263 1257
1527 1523 1518 1513 1506 1499 1492 1487 1481 1474 1467 1457 1449 1438 1430 1420 1411 1399 1386 1374 1364 1352 1345 1328 1320 1310 1300 1294 1288 1283 1278 1277 1273 1269 1265 1260 1253 1246
1525 1521 1515 1510 1505 1499 1492 1484 1477 1469 1462 1453 1444 1435 1427 1418 1408 1395 1383 1371 1358 1346 1340 1331 1318 1306 1295 1289 1285 1280 1275 1271 1267 1262 1258 1253 1245 1239
1523 1519 1515 1509 1504 1498 1490 1483 1473 1464 1453 1444 1437 1429 1422 1413 1403 1395 1383 1371 1360 1346 1339 1330 1318 1312 1294 1285 1282 1278 1272 1267 1262 1257 1252 1246 1240 1232
1521 1517 1513 1509 1504 1497 1489 1482 1473 1463 1454 1444 1434 1425 1417 1409 1399 1391 1383 1373 1360 1351 1341 1332 1321 1311 1305 1290 1279 1276 1271 1263 1257 1252 1246 1241 1236 1229
1519 1516 1512 1508 1502 1495 1488 1480 1471 1464 1454 1443 1433 1424 1416 1407 1398 1389 1381 1372 1362 1353 1341 1332 1322 1313 1303 1293 1285 1276 1269 1262 1256 1249 1243 1237 1232 1226
1518 1514 1510 1505 1500 1494 1487 1480 1472 1463 1453 1443 1434 1425 1417 1408 1399 1388 1378 1370 1361 1352 1341 1331 1321 1310 1303 1297 1289 1279 1269 1261 1256 1250 1243 1236 1230 1223
1516 1512 1508 1503 1498 1492 1486 1480 1473 1464 1455 1447 1437 1427 1418 1407 1398 1389 1378 1368 1358 1348 1341 1332 1321 1311 1302 1297 1291 1282 1274 1267 1257 1251 1244 1238 1232 1227
1514 1511 1507 1502 1497 1492 1486 1480 1473 1464 1455 1448 1438 1428 1419 1409 1399 1389 1380 1370 1361 1349 1339 1331 1323 1315 1306 1299 1293 1285 1275 1268 1260 1252 1245 1239 1234 1228
1513 1510 1506 1502 1497 1492 1485 1478 1471 1463 1457 1450 1441 1431 1421 1412 1403 1392 1382 1373 1364 1354 1344 1334 1324 1314 1307 1303 1296 1288 1279 1270 1262 1255 1249 1242 1236 1230
1513 1510 1506 1502 1498 1492 1486 1480 1472 1466 1459 1451 1444 1434 1423 1414 1406 1396 1386 1377 1367 1359 1349 1340 1330 1321 1311 1304 1299 1293 1283 1273 1264 1256 1250 1245 1240 1234
1513 1510 1507 1503 1498 1492 1487 1480 1474 1467 1459 1452 1444 1435 1426 1418 1409 1400 1391 1382 1372 1363 1353 1344 1335 1327 1320 1312 1304 1297 1290 1280 1269 1260 1252 1248 1245 1241
1512 1510 1507 1503 1498 1493 1488 1482 1475 1469 1461 1454 1446 1437 1429 1421 1412 1404 1395 1386 1377 1368 1358 1348 1341 1333 1325 1317 1309 1302 1295 1288 1280 1268 1258 1251 1248 1246
1511 1509 1506 1502 1498 1493 1488 1483 1477 1470 1462 1455 1447 1440 1431 1424 1416 1408 1400 1390 1382 1374 1365 1355 1345 1336 1328 1321 1314 1307 1301 1294 1288 1279 1269 1262 1256 1254
1510 1507 1505 1501 1497 1493 1489 1483 1478 1471 1464 1457 1450 1442 1434 1426 1419 1412 1404 1395 1387 1378 1368 1359 1350 1342 1335 1327 1319 1313 1306 1300 1294 1287 1280 1276 1270 1266
Wind_Speed
13 15 15 14 16 17 18 19 25 39 42 34 36 31 34 36 38 40 41 42 49 44 43 39 38 43 44 45 45 49 49 47 45 50 52 52 48 45
15 17 16 17 18 18 18 19 21 28 36 40 39 40 39 38 36 38 39 45 44 44 45 41 43 46 49 50 49 45 46 49 45 45 51 56 56 51
18 17 17 18 18 17 18 20 22 25 38 47 39 39 41 40 38 37 37 38 39 41 45 45 49 46 44 42 47 49 47 46 41 41 42 48 52 57
17 18 17 19 19 19 21 21 24 27 32 45 43 43 40 40 41 41 40 36 37 41 45 47 46 47 46 40 39 43 46 50 41 39 40 43 48 50
15 16 17 20 20 23 25 25 27 29 30 35 46 43 44 42 44 44 42 43 39 41 44 49 42 39 40 42 46 42 37 40 42 38 39 42 44 47
17 16 16 20 24 28 27 28 29 32 32 35 40 44 42 46 44 43 55 48 51 50 49 42 41 40 41 48 44 37 29 25 26 31 36 40 41 42
15 16 18 25 29 31 33 34 33 34 34 35 41 45 43 48 45 46 47 54 49 47 46 39 49 44 38 37 35 28 17 16 16 15 23 33 38 43
16 18 19 19 29 33 34 32 30 31 32 33 39 40 43 43 44 45 48 48 56 46 49 51 48 44 36 37 34 23 15 9 10 20 25 28 32 35
16 18 21 22 27 35 36 32 26 27 25 32 32 35 40 42 43 46 47 45 48 51 47 48 43 42 40 37 27 21 21 11 17 22 27 32 34 36
17 19 24 26 29 34 35 31 27 27 27 32 30 32 34 38 38 40 43 45 44 44 41 40 43 47 44 37 18 24 20 19 20 28 26 28 32 33
17 20 24 26 28 31 33 32 32 33 33 31 30 30 32 34 36 39 42 47 45 47 38 40 43 45 44 32 26 30 20 22 23 20 25 30 29 24
18 19 21 24 26 29 31 29 34 39 41 40 36 33 31 34 35 36 41 44 46 44 38 44 41 35 32 31 33 24 21 31 23 21 23 22 23 23
18 20 21 22 24 28 32 31 33 38 40 38 39 36 36 38 38 37 39 39 43 42 40 37 39 38 28 35 39 28 34 28 23 24 25 24 22 20
17 18 19 20 23 27 30 33 35 32 39 42 39 36 38 38 40 40 40 38 37 34 38 34 37 35 30 31 26 32 28 19 24 22 19 20 20 20
17 17 19 22 25 27 29 32 31 34 37 39 38 38 37 37 39 40 42 39 37 36 40 39 35 34 25 24 30 35 34 20 29 27 22 21 24 26
17 19 21 23 26 26 25 27 26 30 31 34 37 36 36 38 40 41 42 44 42 43 43 43 39 32 31 23 29 36 34 27 32 29 26 21 21 22
17 20 23 25 24 25 25 25 25 30 34 34 39 38 38 39 42 42 41 42 42 44 45 46 43 36 31 24 27 35 36 33 30 29 28 24 21 22
18 20 23 24 23 24 26 28 29 31 32 32 36 39 37 40 43 43 42 42 42 43 43 44 44 43 37 26 25 37 34 34 32 27 25 25 22 23
18 19 21 23 23 24 26 27 30 29 31 31 33 40 39 38 41 42 43 41 43 41 41 41 43 43 37 33 22 33 36 35 35 29 27 21 22 22
17 18 20 22 23 25 27 30 31 32 34 34 34 41 41 37 40 42 42 41 42 41 41 39 41 42 35 32 29 31 32 37 39 34 29 18 16 16
15 17 19 21 24 26 28 30 31 34 36 37 38 40 41 38 38 39 41 41 41 42 42 39 40 35 33 29 29 32 32 29 37 35 29 18 15 19
12 14 17 19 22 25 28 30 31 34 37 37 39 38 39 39 35 37 39 41 41 40 39 38 38 38 38 34 30 29 30 27 29 35 34 28 20 12
11 13 16 19 21 24 26 29 31 34 36 37 38 38 39 40 39 36 36 38 40 40 38 38 38 38 35 36 32 30 29 29 24 33 35 30 27 24
Wind_Direction
4 355 352 342 335 331 326 323 317 314 317 323 316 319 314 313 311 314 312 311 313 320 319 312 301 294 287 283 282 279 278 277 281 276 264 257 254 256
8 4 359 350 347 339 335 326 320 311 307 318 318 316 316 315 315 313 312 312 315 317 314 310 301 298 292 285 282 283 277 272 277 281 274 266 257 258
12 6 2 357 349 342 336 329 322 319 309 316 317 319 317 316 315 315 314 312 313 311 307 308 307 311 311 295 284 277 272 277 276 280 281 277 269 260
9 6 360 357 355 346 340 334 328 325 317 316 323 322 318 318 317 318 316 313 310 310 307 317 312 307 305 309 294 285 278 271 272 277 281 277 274 269
7 4 358 358 352 348 346 337 333 331 325 319 320 323 321 323 321 321 316 315 313 312 314 320 318 317 313 308 307 295 287 276 266 275 282 277 276 273
10 4 357 357 353 349 345 339 335 331 328 323 323 324 322 325 323 323 322 321 320 324 324 325 324 313 306 302 302 294 279 273 265 274 282 278 277 274
6 2 355 357 354 350 345 342 338 336 332 329 327 325 322 325 325 325 321 322 322 327 323 317 329 323 316 312 303 297 278 273 278 302 304 295 284 277
2 0 357 349 347 348 346 343 342 334 333 328 326 323 326 327 326 327 324 321 321 325 322 327 333 326 328 330 324 308 296 271 292 298 300 311 314 286
1 358 356 351 351 347 348 347 335 332 334 320 327 331 326 330 330 329 328 327 320 325 325 318 337 325 327 328 327 331 330 288 303 314 317 304 298 322
360 359 359 359 355 350 350 344 338 336 333 337 338 338 334 333 333 332 333 328 323 325 332 318 331 329 330 331 334 333 334 317 312 314 311 321 313 305
5 2 3 3 357 355 355 349 345 343 341 341 341 341 337 336 336 341 339 335 330 331 346 334 331 334 335 338 338 340 342 338 329 314 311 320 325 312
10 8 5 3 358 359 360 352 352 356 354 348 346 347 342 345 350 348 346 334 333 333 346 339 337 338 329 332 337 347 337 332 324 318 317 328 337 320
9 9 7 1 2 5 4 358 1 2 357 354 352 351 351 355 356 353 353 346 335 331 343 344 335 340 327 320 333 341 331 338 329 323 318 322 339 328
10 7 4 2 5 9 6 4 4 358 360 3 357 351 349 350 353 353 355 354 350 342 350 344 340 344 336 339 335 341 345 346 350 348 348 349 350 349
10 6 4 1 3 5 9 8 6 2 2 359 357 352 350 351 353 358 358 359 359 355 357 359 351 349 348 349 351 357 357 356 356 356 352 355 357 357
9 14 11 10 9 3 359 1 2 1 1 356 355 354 353 357 356 359 358 1 355 359 4 3 3 357 355 349 355 356 0 357 355 357 357 355 359 360
17 18 15 12 7 4 1 359 360 2 2 359 359 358 357 358 357 358 359 360 356 354 353 1 3 8 5 354 349 354 355 357 358 355 356 358 6 5
28 20 17 14 9 3 2 1 3 3 360 356 357 2 358 359 356 358 360 359 356 358 354 357 0 2 7 4 358 354 355 355 357 359 359 357 3 7
29 24 19 15 10 7 5 4 3 1 359 358 357 3 3 2 360 356 359 360 356 360 0 359 3 2 354 353 354 3 359 357 357 359 4 3 5 6
29 24 20 16 12 10 8 8 6 5 5 4 2 9 8 3 359 359 358 359 358 355 358 1 355 355 355 349 347 1 8 8 7 2 1 7 24 27
28 24 20 17 15 13 11 11 9 9 9 8 7 9 10 6 0 2 359 360 360 358 355 358 359 356 1 6 2 10 15 15 15 15 10 15 20 32
24 21 19 16 15 13 12 10 11 10 9 8 9 9 10 11 2 2 0 2 359 358 356 4 6 4 6 10 4 5 11 18 16 27 33 34 40 47
17 14 13 11 11 11 12 11 11 12 11 10 9 10 11 8 11 6 3 5 4 1 2 4 6 9 5 7 12 10 15 19 22 28 37 38 51 73